[[{"header":{"parameterUnit":"m.s-1","parameterCategory":1,"la1":30.2991,"la2":30.254,"lo1":-89.0895,"lo2":-89.0444,"dy":0.0017,"dx":0.0017,"nx":28,"ny":28,"refTime":"2024-10-19T21:00:00:Z","depth":0,"parameterNumber":2,"parameterNumberName":"U-component_of_WINDS"},"data":[0,0,0,0,0,0,0,0,0,0,0,0,0,0,0,0,0,0,0,0,0,0,0,0,0,0,0,0,0,0,0,0,0,0,0,0,0,0,0,0,0,0,0,0,0,0,0,0,0,0,0,0,0,0,0,0,0,0,-3.1329,-3.133,0,-3.1414,-3.1415,-3.1416,-3.131,-3.1306,-3.1302,-3.1298,-3.1387,-3.1393,-3.1399,0,0,0,0,0,0,0,0,0,0,0,0,0,-3.1078,-3.1083,-3.1329,-3.133,-3.1331,-3.1414,-3.1415,-3.1416,-3.131,-3.1306,-3.1301,-3.1297,-3.1385,-3.1392,-3.14,0,0,0,0,0,0,0,0,0,0,0,0,0,-3.1177,-3.1085,-3.1329,-3.1289,-3.1286,-3.1413,-3.1415,-3.1416,-3.1311,-3.1306,-3.13,-3.1294,-3.1383,-3.1392,-3.1401,-3.1573,0,0,-3.1428,-3.1432,0,0,0,0,0,0,0,0,-3.1172,-3.1187,-3.1293,-3.1292,-3.1289,-3.1345,-3.1359,-3.1469,-3.1313,-3.1302,-3.1298,-3.1291,-3.1378,-3.1387,-3.1416,-3.1577,-3.1581,-3.1429,-3.1434,-3.1438,-3.1441,0,0,0,0,0,0,0,-3.1165,-3.1183,-3.1363,-3.1295,-3.1292,-3.1267,-3.1274,-3.1379,-3.1372,-3.1302,-3.1295,-3.1306,-3.1376,-3.1408,-3.1417,-3.1582,-3.1429,-3.1437,-3.1442,-3.1446,-3.1889,-3.1895,0,0,0,0,0,0,-3.1163,-3.1178,-3.136,-3.1365,-3.1215,-3.1276,-3.1284,-3.1333,-3.137,-3.137,-3.1311,-3.1301,-3.1395,-3.1407,-3.142,-3.1625,-3.1438,-3.1447,-3.1452,-3.1883,-3.189,-3.1897,0,0,0,0,0,0,-3.1158,-3.118,-3.1357,-3.1269,-3.129,-3.1286,-3.1342,-3.1338,-3.1369,-3.1377,-3.1375,-3.1345,-3.1391,-3.1407,-3.1536,-3.1627,-3.1451,-3.1459,-3.1875,-3.1885,-3.1894,-3.2036,0,0,0,0,0,0,-3.1151,-3.1179,-3.1244,-3.1272,-3.1295,-3.1471,-3.1347,-3.1344,-3.1385,-3.1372,-3.1408,-3.1408,-3.1388,-3.1523,-3.1545,-3.1636,-3.1466,-3.1867,-3.188,-3.1891,-3.2023,-3.2049,-3.2072,0,0,0,0,0,-3.1142,-3.1281,-3.1248,-3.1271,-3.1376,-3.1476,-3.149,-3.1462,-3.1393,-3.1459,-3.1463,-3.1407,-3.1612,-3.1537,-3.156,-3.1656,-3.1861,-3.1876,-3.189,-3.2013,-3.2044,-3.2071,0,0,0,0,0,0,-3.1266,-3.1284,-3.1248,-3.1399,-3.1437,-3.1458,-3.1541,-3.1497,-3.1556,-3.1542,-3.1505,-3.1514,-3.1651,-3.1666,-3.1581,-3.1824,-3.1725,-3.1745,-3.1811,-3.1841,-3.1864,-3.1859,-3.1473,0,0,0,0,0,-3.131,-3.1389,-3.1401,-3.1534,-3.1555,-3.1545,-3.1587,-3.1563,-3.16,-3.1616,-3.163,-3.167,-3.1743,-3.1792,-3.186,-3.2024,-3.2031,-3.2101,-3.2125,-3.2145,-3.2163,-3.2252,-3.2284,-3.1944,-3.1944,-3.1944,0,0,-3.1404,-3.1424,-3.1476,-3.1559,-3.1586,-3.1669,-3.1559,-3.1652,-3.1714,-3.163,-3.1753,-3.1764,-3.1806,-3.1953,-3.2018,-3.1969,-3.2258,-3.2163,-3.2179,-3.2187,-3.227,-3.2302,-3.2331,-3.1954,-3.1952,-3.1951,0,0,-3.1618,-3.164,-3.1753,-3.1782,-3.1822,-3.1814,-3.1842,-3.187,-3.1874,-3.1995,-3.1935,-3.2008,-3.2134,-3.2167,-3.22,-3.2424,-3.2376,-3.2447,-3.2575,-3.2662,-3.2688,-3.2712,-3.2794,-3.2823,-3.2465,-3.2465,-3.2466,0,-3.173,-3.1852,-3.1817,-3.1915,-3.1954,-3.188,-3.1996,-3.2025,-3.2086,-3.2115,-3.2058,-3.2216,-3.2239,-3.2393,-3.2447,-3.2476,-3.2507,-3.2445,-3.2687,-3.271,-3.2732,-3.2809,-3.284,-3.2474,-3.2473,-3.2472,-3.2471,0,-3.1988,-3.2074,-3.2161,-3.2221,-3.2269,-3.2375,-3.2357,-3.241,-3.2381,-3.2379,-3.2504,-3.2528,-3.26,-3.2634,-3.2607,-3.2785,-3.2753,-3.2692,-3.2593,-3.2773,-3.2846,-3.2875,-3.2486,-3.2483,-3.2481,-3.2479,0,0,-3.2285,-3.2323,-3.2356,-3.2382,-3.2421,-3.2487,-3.2589,-3.2659,-3.2706,-3.2749,-3.2835,-3.2944,-3.2888,-3.2925,-3.29,-3.2976,-3.3154,-3.2906,-3.2907,-3.2953,-3.3354,-3.3401,-3.3436,-3.3121,-3.3126,-3.3131,-3.3351,0,-3.25,-3.2677,-3.2648,-3.2819,-3.2899,-3.283,-3.2919,-3.2953,-3.2953,-3.3021,-3.3021,-3.31,-3.3019,-3.3041,-3.3113,-3.3118,-3.3235,-3.3101,-3.3202,-3.3206,-3.3197,-3.3473,-3.3524,-3.373,-3.3379,-3.3383,-3.3387,0,-3.2775,-3.2829,-3.3008,-3.3034,-3.3067,-3.3148,-3.3209,-3.3274,-3.3311,-3.3306,-3.3347,-3.3308,-3.3411,-3.3307,-3.3449,-3.3359,-3.3398,-3.3406,-3.3413,-3.3424,-3.331,-3.3494,-3.3795,-3.3827,-3.3431,-3.3427,-3.3424,0,-3.2976,-3.3093,-3.3215,-3.324,-3.3273,-3.3331,-3.3348,-3.3379,-3.3422,-3.3475,-3.3503,-3.3568,-3.3604,-3.3655,-3.3635,-3.3561,-3.3781,-3.3676,-3.3782,-3.3783,-3.3833,-3.3831,-3.4148,-3.3855,-3.3855,-3.3854,-3.3853,0,-3.3221,-3.3334,-3.3306,-3.3382,-3.3506,-3.3471,-3.3596,-3.3604,-3.3632,-3.3709,-3.3652,-3.3725,-3.3692,-3.3764,-3.3748,-3.3869,-3.3885,-3.3885,-3.388,-3.3891,-3.3892,-3.3919,-3.3905,-3.3862,-3.386,-3.3859,-3.3857,0,-3.3468,-3.3453,-3.3582,-3.3602,-3.361,-3.3701,-3.3719,-3.379,-3.3785,-3.3883,-3.3903,-3.3897,-3.3977,-3.3961,-3.405,-3.404,-3.4191,-3.4167,-3.4179,-3.4175,-3.4282,-3.4273,-3.463,-3.4675,-3.4351,-3.4354,-3.4356,0,-3.3626,-3.3711,-3.374,-3.3787,-3.3808,-3.3884,-3.3927,-3.3896,-3.3944,-3.3992,-3.4058,-3.4133,-3.4192,-3.4324,-3.4328,-3.4395,-3.4374,-3.4494,-3.4384,-3.4393,-3.4378,-3.4375,-3.4384,-3.4517,-3.4521,-3.4524,-3.4526,0,-3.391,-3.3898,-3.3963,-3.4026,-3.4079,-3.4127,-3.4169,-3.4211,-3.4183,-3.424,-3.4321,-3.4367,-3.4457,-3.4533,-3.4596,-3.4613,-3.4567,-3.456,-3.4589,-3.4603,-3.4607,-3.4608,-3.4242,-3.4553,-3.455,-3.4548,-3.4547,-3.4546,-3.4119,-3.4191,-3.4223,-3.4297,-3.4325,-3.4366,-3.4434,-3.4437,-3.4504,-3.4575,-3.4552,-3.4645,-3.4679,-3.4758,-3.4783,-3.4856,-3.4811,-3.4852,-3.4863,-3.4874,-3.4888,-3.4593,-3.4867,-3.4866,-3.4865,-3.4865,-3.4864,0,-3.4401,-3.4418,-3.4486,-3.4547,-3.4605,-3.4553,-3.4597,-3.465,-3.4733,-3.4768,-3.4826,-3.492,-3.4993,-3.5002,-3.5071,-3.5128,-3.5108,-3.5147,-3.5144,-3.5149,-3.4923,-3.4893,-3.5162,-3.5162,-3.5162,-3.5162,-3.5162,-3.5162,-3.4555,-3.4676,-3.4668,-3.4802,-3.4817,-3.4908,-3.4938,-3.4975,-3.5003,-3.511,-3.517,-3.5175,-3.52,-3.527,-3.5335,-3.5335,-3.5365,-3.5413,-3.5406,-3.5195,-3.5165,-3.5137,-3.5108,-3.5419,-3.5419,-3.5626,-3.5628,-3.5629]},{"header":{"parameterUnit":"m.s-1","parameterCategory":1,"la1":30.2991,"la2":30.254,"lo1":-89.0895,"lo2":-89.0444,"dy":0.0017,"dx":0.0017,"nx":28,"ny":28,"refTime":"2024-10-19T21:00:00:Z","depth":0,"parameterNumber":3,"parameterNumberName":"V-component_of_WINDS"},"data":[0,0,0,0,0,0,0,0,0,0,0,0,0,0,0,0,0,0,0,0,0,0,0,0,0,0,0,0,0,0,0,0,0,0,0,0,0,0,0,0,0,0,0,0,0,0,0,0,0,0,0,0,0,0,0,0,0,0,-3.4009,-3.4009,0,-3.4031,-3.4031,-3.4031,-3.3993,-3.3992,-3.399,-3.3989,-3.401,-3.4012,-3.4014,0,0,0,0,0,0,0,0,0,0,0,0,0,-3.3933,-3.3934,-3.4009,-3.4009,-3.401,-3.4031,-3.4031,-3.4031,-3.3993,-3.3992,-3.399,-3.3989,-3.401,-3.4012,-3.4014,0,0,0,0,0,0,0,0,0,0,0,0,0,-3.3961,-3.3935,-3.4009,-3.3993,-3.3992,-3.4031,-3.4031,-3.4031,-3.3994,-3.3992,-3.399,-3.3988,-3.4009,-3.4011,-3.4014,-3.4069,0,0,-3.4022,-3.4023,0,0,0,0,0,0,0,0,-3.396,-3.3964,-3.3995,-3.3994,-3.3993,-3.4007,-3.4012,-3.4044,-3.3994,-3.3993,-3.3989,-3.3987,-3.4011,-3.4013,-3.4021,-3.407,-3.407,-3.4022,-3.4024,-3.4025,-3.4026,0,0,0,0,0,0,0,-3.3958,-3.3963,-3.4018,-3.3996,-3.3995,-3.3984,-3.3986,-3.4017,-3.4012,-3.3993,-3.399,-3.3993,-3.401,-3.4019,-3.4021,-3.4071,-3.4022,-3.4025,-3.4026,-3.4027,-3.4162,-3.4164,0,0,0,0,0,0,-3.3958,-3.3962,-3.4017,-3.4018,-3.3971,-3.3987,-3.3989,-3.4005,-3.4012,-3.4011,-3.3995,-3.3991,-3.4015,-3.4018,-3.4022,-3.4084,-3.4025,-3.4027,-3.4029,-3.416,-3.4162,-3.4165,0,0,0,0,0,0,-3.3956,-3.3963,-3.4016,-3.3989,-3.3995,-3.3991,-3.4008,-3.4006,-3.4015,-3.4013,-3.4012,-3.4005,-3.4014,-3.4018,-3.4057,-3.4084,-3.4029,-3.4031,-3.4158,-3.4161,-3.4164,-3.421,0,0,0,0,0,0,-3.3954,-3.3963,-3.3984,-3.399,-3.3997,-3.4051,-3.401,-3.4008,-3.402,-3.4016,-3.4023,-3.4022,-3.4013,-3.4053,-3.4059,-3.4087,-3.4033,-3.4155,-3.4159,-3.4163,-3.4206,-3.4215,-3.4222,0,0,0,0,0,-3.3952,-3.3997,-3.3986,-3.3993,-3.4023,-3.4053,-3.4057,-3.4045,-3.4022,-3.4043,-3.4042,-3.4022,-3.4081,-3.4057,-3.4064,-3.4093,-3.4153,-3.4158,-3.4162,-3.4203,-3.4213,-3.4222,0,0,0,0,0,0,-3.3995,-3.3998,-3.3985,-3.4034,-3.4043,-3.4047,-3.4073,-3.4057,-3.4073,-3.4068,-3.4053,-3.4055,-3.4096,-3.4099,-3.4072,-3.4145,-3.4113,-3.4119,-3.4142,-3.4151,-3.4159,-3.4157,-3.4035,0,0,0,0,0,-3.401,-3.4035,-3.4035,-3.4078,-3.4084,-3.4077,-3.409,-3.408,-3.4089,-3.4093,-3.4095,-3.4104,-3.4124,-3.4138,-3.4157,-3.4207,-3.4207,-3.423,-3.4238,-3.4244,-3.4249,-3.4273,-3.4283,-3.418,-3.4179,-3.4179,0,0,-3.4042,-3.4046,-3.4063,-3.4087,-3.4093,-3.4118,-3.4081,-3.4109,-3.4127,-3.4097,-3.4133,-3.4135,-3.4144,-3.4188,-3.4207,-3.4191,-3.4278,-3.425,-3.4255,-3.4256,-3.4279,-3.4289,-3.4297,-3.4183,-3.4182,-3.4182,0,0,-3.4112,-3.4118,-3.4153,-3.416,-3.417,-3.4165,-3.4174,-3.4179,-3.4179,-3.4215,-3.4193,-3.4213,-3.4249,-3.4256,-3.4264,-3.4334,-3.4316,-3.4341,-3.4381,-3.4405,-3.4413,-3.442,-3.4443,-3.4452,-3.4346,-3.4347,-3.4347,0,-3.415,-3.4186,-3.4173,-3.4202,-3.4212,-3.4187,-3.4221,-3.4229,-3.4245,-3.4252,-3.4234,-3.4277,-3.4282,-3.4325,-3.4342,-3.4351,-3.4358,-3.434,-3.4413,-3.442,-3.4426,-3.4448,-3.4457,-3.4349,-3.4349,-3.4349,-3.4348,0,-3.4231,-3.4256,-3.4283,-3.4298,-3.4312,-3.4344,-3.4335,-3.435,-3.4338,-3.4335,-3.4371,-3.4376,-3.4394,-3.4404,-3.4394,-3.4446,-3.4435,-3.4416,-3.4383,-3.4439,-3.4459,-3.4468,-3.4353,-3.4352,-3.4352,-3.4351,0,0,-3.4329,-3.4335,-3.4345,-3.435,-3.4359,-3.4378,-3.4408,-3.4425,-3.4437,-3.4449,-3.4472,-3.4503,-3.4484,-3.4493,-3.4483,-3.4505,-3.4557,-3.4482,-3.4482,-3.4494,-3.4612,-3.4626,-3.4636,-3.4546,-3.4547,-3.4548,-3.4611,0,-3.4396,-3.4447,-3.4436,-3.4486,-3.4507,-3.4483,-3.4509,-3.4516,-3.4513,-3.4531,-3.4528,-3.4549,-3.4524,-3.4529,-3.4549,-3.4547,-3.458,-3.4542,-3.4565,-3.4566,-3.4562,-3.4646,-3.4661,-3.472,-3.4619,-3.462,-3.4621,0,-3.4482,-3.4495,-3.4547,-3.455,-3.4559,-3.4582,-3.4596,-3.4614,-3.4621,-3.4617,-3.4627,-3.4613,-3.4641,-3.4609,-3.4646,-3.462,-3.4629,-3.4629,-3.4631,-3.4632,-3.4596,-3.4647,-3.4738,-3.4747,-3.4634,-3.4633,-3.4632,0,-3.4545,-3.4576,-3.4611,-3.4616,-3.4621,-3.4638,-3.464,-3.4646,-3.4656,-3.4669,-3.4675,-3.4691,-3.4699,-3.4711,-3.47,-3.4679,-3.4739,-3.4707,-3.4735,-3.4735,-3.4748,-3.4747,-3.484,-3.4757,-3.4757,-3.4757,-3.4757,0,-3.462,-3.4652,-3.4639,-3.466,-3.4694,-3.4681,-3.4715,-3.4715,-3.472,-3.4739,-3.472,-3.4738,-3.4724,-3.4742,-3.4734,-3.4765,-3.4769,-3.4766,-3.4763,-3.4767,-3.4767,-3.4771,-3.4766,-3.4759,-3.4759,-3.4758,-3.4758,0,-3.4696,-3.4689,-3.4724,-3.4725,-3.4726,-3.4751,-3.4752,-3.4771,-3.4766,-3.4791,-3.4796,-3.479,-3.4809,-3.48,-3.4821,-3.4815,-3.4854,-3.4847,-3.4851,-3.4849,-3.4877,-3.4874,-3.4975,-3.4986,-3.4898,-3.4899,-3.4899,0,-3.4744,-3.4768,-3.4771,-3.4782,-3.4786,-3.4806,-3.4816,-3.4803,-3.4814,-3.4823,-3.4841,-3.4858,-3.4871,-3.4903,-3.4899,-3.4914,-3.4906,-3.494,-3.4908,-3.491,-3.4904,-3.4902,-3.4903,-3.4946,-3.4947,-3.4948,-3.4949,0,-3.4828,-3.4823,-3.4839,-3.4853,-3.4865,-3.4876,-3.4885,-3.4895,-3.4883,-3.4896,-3.4915,-3.4925,-3.4946,-3.4962,-3.4975,-3.4977,-3.496,-3.4959,-3.4966,-3.4969,-3.497,-3.4967,-3.4867,-3.4956,-3.4956,-3.4955,-3.4955,-3.4954,-3.489,-3.4909,-3.4914,-3.4931,-3.4936,-3.4945,-3.4961,-3.4959,-3.4975,-3.499,-3.4981,-3.5003,-3.5008,-3.5023,-3.5027,-3.5043,-3.503,-3.504,-3.5043,-3.5045,-3.5048,-3.4969,-3.5046,-3.5046,-3.5046,-3.5045,-3.5045,0,-3.4972,-3.4973,-3.4989,-3.5002,-3.5015,-3.4998,-3.5007,-3.5019,-3.5038,-3.5044,-3.5057,-3.5078,-3.5094,-3.5091,-3.5105,-3.5119,-3.5111,-3.5123,-3.5121,-3.5121,-3.506,-3.5052,-3.5128,-3.5128,-3.5128,-3.5128,-3.5128,-3.5128,-3.5016,-3.5046,-3.5041,-3.5073,-3.5074,-3.5095,-3.5101,-3.5108,-3.5112,-3.5136,-3.5149,-3.5148,-3.515,-3.5164,-3.5177,-3.5176,-3.5181,-3.5195,-3.5191,-3.5134,-3.5126,-3.5118,-3.5109,-3.5197,-3.5197,-3.5249,-3.525,-3.525]}]]